Flag for Canada Weather past 2 weeks in Annapolis County, Nova Scotia, Canada

Now
47 °F

Cool.


Feels Like: 47 °F
Forecast: 52 / 68 °F
Wind: 2 mph from Northwest

Location: Kejimkujik 1

Current Time: Aug 30, 2014 at 12:14:31 AM

Latest Report: Aug 29, 2014 at 11:00 PM


Visibility: N/A

Pressure: 30.25 "Hg

Humidity: 86%

Dew point: 43 °F

Location of Annapolis CountyLocation

Historic Weather in Annapolis County — Graph

°F

Annapolis County temperature yesterday

Maximum temperature yesterday: 66 °F (at 2:00 PM)
Minimum temperature yesterday: 50 °F (at 10:00 PM)
Average temperature yesterday: 59 °F

Past Weeks' High & Low Weather Summary

 TemperatureHumidityPressure
High82 °F (Aug 27, 2:00 PM)100% (Aug 15, 7:00 AM)30.24 "Hg (Aug 15, 7:00 AM)
Low48 °F (Aug 24, 7:00 AM)42% (Aug 20, 3:00 PM)29.64 "Hg (Aug 28, 4:00 PM)
Average64 °F79%29.97 "Hg
* Reported Aug 14 10:00 PM — Aug 29 10:00 PM, Annapolis County, Weather by CustomWeather, © 2014

Note: Actual official high and low records may vary slightly from our data, if they occured in-between our weather recording intervals... More about our weather records

Advertising

Annapolis County weather history for previous 24 hours

 ConditionsComfort  
Time TempWeatherWind HumidityBarometerVisibility
10:00 PM
Aug 29
50 °FCool.2 mph85%30.24 "HgN/A
9:00 PM52 °FCool.1 mph77%30.22 "HgN/A
8:00 PM54 °FCool.2 mph76%30.19 "HgN/A
7:00 PM61 °FRefreshingly cool.5 mph56%30.17 "HgN/A
6:00 PM64 °FMild.6 mph51%30.15 "HgN/A
4:00 PM66 °FMild.8 mph47%30.11 "HgN/A
3:00 PM66 °FMild.8 mph51%30.10 "HgN/A
2:00 PM66 °FMild.7 mph55%30.09 "HgN/A
1:00 PM64 °FMild.7 mph58%30.06 "HgN/A
12:00 PM62 °FCool.7 mph63%30.05 "HgN/A
11:00 AM60 °FCool.9 mph64%30.03 "HgN/A
10:00 AM58 °FCool.8 mph72%30.01 "HgN/A
9:00 AM55 °FCool.5 mph79%29.98 "HgN/A
8:00 AM54 °FCool.7 mph84%29.96 "HgN/A
7:00 AM54 °FCool.7 mph88%29.93 "HgN/A
6:00 AM56 °FCool.6 mph89%29.89 "HgN/A
5:00 AM56 °FCool.8 mph89%29.85 "HgN/A
4:00 AM57 °FCool.6 mph93%29.82 "HgN/A
3:00 AM58 °FCool.6 mph90%29.80 "HgN/A
2:00 AM59 °FCool.6 mph90%29.78 "HgN/A
1:00 AM60 °FCool.7 mph90%29.75 "HgN/A
12:00 AM59 °FCool.5 mph89%29.73 "HgN/A
Weather by CustomWeather, © 2014

See weather overviewHow to use our weather pages